This demonstration page uses our WeatherBlox Daily Observations layout. Learn more.

Left ArrowRight Arrow

34.02893, -84.19858

Hourly Observations for May 15, 2015

Temp ( °F °C ) Dew Point ( °F °C ) Humidity (%) Winds ( mph kmh ) Pressure ( in mb ) Visibility ( mi km ) Precip ( " mm )
12:53 am 00:53 Clear 72 22.2 59 15 64 64 VRB 5 7 30.20 1023 8 13 0.00 0.00
1:53 am 01:53 Clear 71 21.7 59 15 66 66 E 3 6 30.21 1023 8 13 0.00 0.00
2:53 am 02:53 Clear 70 21.1 59 15 68 68 E 3 6 30.20 1023 8 13 0.00 0.00
3:53 am 03:53 Mostly Clear 69 20.6 60 15.6 73 73 VRB 5 7 30.19 1022 8 13 0.00 0.00
4:53 am 04:53 Clear 68 20 60 15.6 76 76 ESE 3 6 30.19 1022 8 13 0.00 0.00
5:53 am 05:53 Partly Cloudy 67 19.4 60 15.6 79 79 ESE 3 6 30.21 1023 8 13 0.00 0.00
6:53 am 06:53 Mostly Cloudy with Haze 67 19.4 61 16.1 81 81 VRB 3 6 30.23 1024 6 10 0.00 0.00
7:53 am 07:53 Mostly Cloudy with Mist and Fog 66 18.9 62 16.7 87 87 Calm 30.24 1024 5 8 0.00 0.00
8:53 am 08:53 Cloudy with Haze 69 20.6 63 17.2 81 81 VRB 7 11 30.25 1024 5 8 0.00 0.00
9:42 am 09:42 Cloudy with Haze 70 21.1 63 17.2 79 79 SE 7 11 30.27 1025 6 10 0.00 0.00
9:53 am 09:53 Cloudy with Haze 71 21.7 63 17.2 76 76 SSE 6 9 30.26 1025 6 10 0.00 0.00
10:53 am 10:53 Mostly Sunny 74 23.3 62 16.7 67 67 S 7 11 30.26 1025 7 11 0.00 0.00
11:53 am 11:53 Partly Cloudy 78 25.6 62 16.7 58 58 SE 8 13 30.25 1024 7 11 0.00 0.00
12:53 pm 12:53 Mostly Cloudy 79 26.1 61 16.1 54 54 S 8 13 30.24 1024 7 11 0.00 0.00
1:53 pm 13:53 Mostly Cloudy 80 26.7 61 16.1 52 52 SSE 8 13 30.22 1023 8 13 0.00 0.00
2:53 pm 14:53 Cloudy 77 25 61 16.1 58 58 SSE 9 15 30.21 1023 7 11 0.00 0.00
3:53 pm 15:53 Cloudy 77 25 61 16.1 58 58 VRB 6 9 30.18 1022 7 11 0.00 0.00
4:53 pm 16:53 Cloudy 79 26.1 61 16.1 54 54 SE 9 15 30.17 1022 7 11 0.00 0.00
5:53 pm 17:53 Partly Cloudy 77 25 60 15.6 56 56 SE 8 13 30.16 1021 7 11 0.00 0.00
6:53 pm 18:53 Sunny 77 25 58 14.4 52 52 SSE 10 17 30.16 1021 8 13 0.00 0.00
7:53 pm 19:53 Mostly Cloudy 76 24.4 60 15.6 58 58 SE 6 9 30.16 1022 7 11 0.00 0.00
8:53 pm 20:53 Clear 73 22.8 61 16.1 66 66 Calm 30.17 1022 8 13 0.00 0.00
9:53 pm 21:53 Clear 70 21.1 62 16.7 76 76 Calm 30.19 1022 8 13 0.00 0.00
10:53 pm 22:53 Clear 70 21.1 62 16.7 76 76 Calm 30.20 1023 8 13 0.00 0.00
11:53 pm 23:53 Clear 70 21.1 62 16.7 76 76 Calm 30.19 1023 7 11 0.00 0.00

Powered by AerisWeather